Location: Biltmore Gardens
(41.6070°N, 83.4666°W)
Time: 14:16:57
(UTC+00:00)

Cosmos 405 Rocket - Pass Details

Date: 14 July 2020
Orbit: 489 x 555 km, 81.3° (Epoch: 04 August)

Event Time Altitude Azimuth Distance (km) Brightness Sun altitude
Exits shadow 07:13:30 50° 313° (NW) 659 3.2 -23.2°
Drops below altitude 10° 07:16:43 10° 0° (N) 1,724 6.2 -22.9°
Sets 07:18:52 0° 5° (N) 2,604 7.5 -22.8°
